Location: Aressy
(43.2833°N, 0.3167°W)
Time: 01:11:34
(UTC+00:00)

Cosmos 1340 - Pass Details

Date: 28 January 2021
Orbit: 501 x 503 km, 81.2° (Epoch: 08 March)

Event Time Altitude Azimuth Distance (km) Brightness Sun altitude
Rises 18:04:11 0° 190° (S) 2,581 6.6 -10.4°
Reaches altitude 10° 18:06:17 10° 191° (SSW) 1,702 5.7 -10.8°
Maximum altitude 18:10:01 83° 278° (W) 511 2.7 -11.5°
Drops below altitude 10° 18:13:47 10° 9° (N) 1,717 5.1 -12.1°
Sets 18:15:55 0° 10° (N) 2,606 6.0 -12.5°
